ASA2191 KSAN-KPAE

Flight info

Callsign ASA2191
Flight time 2h 38m
Altitude 32000
Route PADRZ2 IKAYE TESEA SCTRR SNS RBL MAHKE OLM OLM2
Aircraft B739/M-SDE2E3FGHIRWXY/L

Departure

Time 2026-05-07 01:48
Airport San Diego International Airport (KSAN)

Arrival

Time 2026-05-07 04:26
Airport Seattle Paine Field International Airport (KPAE)
Time Latitude Longitude Altitude Speed Heading
2026-05-07 01:34 32.73420 -117.20076 22 ft 0 kts 211°
2026-05-07 01:36 32.73427 -117.20072 23 ft 3 kts 210°
2026-05-07 01:36 32.73445 -117.20059 26 ft 3 kts 207°
2026-05-07 01:36 32.73463 -117.20049 25 ft 3 kts 202°
2026-05-07 01:36 32.73483 -117.20040 24 ft 3 kts 192°
2026-05-07 01:37 32.73502 -117.20038 24 ft 3 kts 163°
2026-05-07 01:37 32.73514 -117.20046 23 ft 1 kts 107°
2026-05-07 01:37 32.73515 -117.20047 23 ft 0 kts 107°
2026-05-07 01:41 32.73514 -117.20043 22 ft 2 kts 107°
2026-05-07 01:42 32.73497 -117.19977 23 ft 13 kts 106°
2026-05-07 01:42 32.73475 -117.19885 25 ft 13 kts 106°
2026-05-07 01:42 32.73446 -117.19767 22 ft 18 kts 106°
2026-05-07 01:42 32.73410 -117.19616 23 ft 20 kts 106°
2026-05-07 01:43 32.73368 -117.19445 23 ft 23 kts 106°
2026-05-07 01:43 32.73323 -117.19253 21 ft 24 kts 105°
2026-05-07 01:43 32.73284 -117.19097 23 ft 13 kts 106°
2026-05-07 01:43 32.73255 -117.18980 24 ft 17 kts 106°
2026-05-07 01:44 32.73220 -117.18832 22 ft 18 kts 106°
2026-05-07 01:44 32.73185 -117.18689 24 ft 17 kts 106°
2026-05-07 01:44 32.73151 -117.18547 23 ft 19 kts 106°
2026-05-07 01:44 32.73112 -117.18389 24 ft 21 kts 106°
2026-05-07 01:45 32.73071 -117.18218 24 ft 18 kts 106°
2026-05-07 01:45 32.73034 -117.18067 22 ft 20 kts 106°
2026-05-07 01:45 32.73004 -117.17945 23 ft 14 kts 106°
2026-05-07 01:45 32.72979 -117.17841 24 ft 13 kts 107°
2026-05-07 01:46 32.72951 -117.17738 23 ft 9 kts 103°
2026-05-07 01:46 32.72951 -117.17698 22 ft 8 kts 81°
2026-05-07 01:46 32.72975 -117.17607 23 ft 13 kts 69°
2026-05-07 01:46 32.73007 -117.17563 22 ft 7 kts 354°
2026-05-07 01:47 32.73040 -117.17663 23 ft 34 kts 286°
2026-05-07 01:47 32.73181 -117.18245 24 ft 111 kts 286°
2026-05-07 01:47 32.73460 -117.19380 27 ft 171 kts 287°
2026-05-07 01:47 32.73816 -117.20849 426 ft 198 kts 289°
2026-05-07 01:48 32.74344 -117.22456 1136 ft 208 kts 304°
2026-05-07 01:48 32.75197 -117.23778 2312 ft 202 kts 307°
2026-05-07 01:48 32.76070 -117.25187 2677 ft 223 kts 306°
2026-05-07 01:48 32.77000 -117.26755 2785 ft 245 kts 305°
2026-05-07 01:49 32.78001 -117.28478 3180 ft 259 kts 305°
2026-05-07 01:49 32.79036 -117.30276 3748 ft 265 kts 304°
2026-05-07 01:49 32.80088 -117.32084 4435 ft 265 kts 307°
2026-05-07 01:49 32.81204 -117.33842 5078 ft 269 kts 308°
2026-05-07 01:50 32.82356 -117.35612 5708 ft 271 kts 309°
2026-05-07 01:50 32.83515 -117.37390 6331 ft 274 kts 309°
2026-05-07 01:50 32.84675 -117.39173 6933 ft 276 kts 310°
2026-05-07 01:50 32.85856 -117.40996 7485 ft 280 kts 309°
2026-05-07 01:51 32.87049 -117.42843 8083 ft 282 kts 310°
2026-05-07 01:51 32.88248 -117.44702 8677 ft 284 kts 310°
2026-05-07 01:51 32.89459 -117.46580 9253 ft 287 kts 310°
2026-05-07 01:51 32.90683 -117.48483 9838 ft 291 kts 311°
2026-05-07 01:52 32.91928 -117.50418 10243 ft 301 kts 311°
2026-05-07 01:52 32.93237 -117.52450 10362 ft 320 kts 311°
2026-05-07 01:52 32.94608 -117.54582 10498 ft 337 kts 310°
2026-05-07 01:52 32.96073 -117.56866 10629 ft 354 kts 310°
2026-05-07 01:53 32.97597 -117.59244 10747 ft 370 kts 310°
2026-05-07 01:53 32.99187 -117.61729 10956 ft 381 kts 310°
2026-05-07 01:53 33.00806 -117.64262 11352 ft 385 kts 310°
2026-05-07 01:53 33.02439 -117.66818 11814 ft 388 kts 310°
2026-05-07 01:54 33.04078 -117.69381 12306 ft 391 kts 310°
2026-05-07 01:54 33.05717 -117.71937 12765 ft 394 kts 311°
2026-05-07 01:54 33.07539 -117.74375 13217 ft 393 kts 321°
2026-05-07 01:54 33.09637 -117.76454 13710 ft 394 kts 324°
2026-05-07 01:55 33.11766 -117.78506 14153 ft 397 kts 324°
2026-05-07 01:55 33.13914 -117.80624 14614 ft 399 kts 323°
2026-05-07 01:55 33.16050 -117.82779 15108 ft 401 kts 323°
2026-05-07 01:55 33.18179 -117.84948 15583 ft 403 kts 323°
2026-05-07 01:56 33.20275 -117.87133 16037 ft 407 kts 321°
2026-05-07 01:56 33.22328 -117.89484 16485 ft 410 kts 319°
2026-05-07 01:56 33.24346 -117.91906 16936 ft 412 kts 318°
2026-05-07 01:56 33.26359 -117.94358 17400 ft 414 kts 318°
2026-05-07 01:57 33.28383 -117.96824 17857 ft 416 kts 318°
2026-05-07 01:57 33.30408 -117.99278 18281 ft 419 kts 318°
2026-05-07 01:57 33.32464 -118.01758 18667 ft 421 kts 318°
2026-05-07 01:57 33.34534 -118.04245 19046 ft 422 kts 318°
2026-05-07 01:58 33.36610 -118.06734 19423 ft 424 kts 318°
2026-05-07 01:58 33.38682 -118.09216 19801 ft 425 kts 318°
2026-05-07 01:58 33.40793 -118.11746 20153 ft 428 kts 318°
2026-05-07 01:58 33.42907 -118.14280 20526 ft 430 kts 318°
2026-05-07 01:59 33.45017 -118.16811 20887 ft 432 kts 318°
2026-05-07 01:59 33.47130 -118.19347 21261 ft 434 kts 319°
2026-05-07 01:59 33.49238 -118.21880 21602 ft 436 kts 319°
2026-05-07 01:59 33.51375 -118.24450 21949 ft 438 kts 319°
2026-05-07 02:00 33.53515 -118.27024 22282 ft 440 kts 319°
2026-05-07 02:00 33.55685 -118.29638 22613 ft 442 kts 319°
2026-05-07 02:00 33.57859 -118.32258 22889 ft 445 kts 319°
2026-05-07 02:00 33.60055 -118.34906 23183 ft 447 kts 319°
2026-05-07 02:01 33.62251 -118.37558 23493 ft 449 kts 319°
2026-05-07 02:01 33.64471 -118.40240 23782 ft 451 kts 319°
2026-05-07 02:01 33.66657 -118.42883 24029 ft 452 kts 319°
2026-05-07 02:01 33.68864 -118.45553 24282 ft 454 kts 319°
2026-05-07 02:02 33.71094 -118.48254 24539 ft 455 kts 319°
2026-05-07 02:02 33.73322 -118.50953 24792 ft 457 kts 319°
2026-05-07 02:02 33.75571 -118.53680 25041 ft 459 kts 319°
2026-05-07 02:02 33.77828 -118.56419 25292 ft 461 kts 319°
2026-05-07 02:03 33.80087 -118.59164 25547 ft 463 kts 319°
2026-05-07 02:03 33.82329 -118.61890 25810 ft 464 kts 319°
2026-05-07 02:03 33.84615 -118.64671 26066 ft 465 kts 319°
2026-05-07 02:03 33.86887 -118.67437 26290 ft 467 kts 318°
2026-05-07 02:04 33.89149 -118.70194 26533 ft 468 kts 318°
2026-05-07 02:04 33.91438 -118.72986 26814 ft 469 kts 318°
2026-05-07 02:04 33.93734 -118.75790 27173 ft 467 kts 318°
2026-05-07 02:04 33.96008 -118.78569 27568 ft 465 kts 318°
2026-05-07 02:05 33.98275 -118.81341 27956 ft 464 kts 318°
2026-05-07 02:05 34.00544 -118.84118 28315 ft 463 kts 319°
2026-05-07 02:05 34.02783 -118.86859 28656 ft 463 kts 319°
2026-05-07 02:05 34.05042 -118.89628 29037 ft 462 kts 319°
2026-05-07 02:06 34.07290 -118.92385 29447 ft 461 kts 319°
2026-05-07 02:06 34.09556 -118.95118 29859 ft 459 kts 319°
2026-05-07 02:06 34.11797 -118.97870 30223 ft 458 kts 317°
2026-05-07 02:06 34.13984 -119.00593 30564 ft 457 kts 318°
2026-05-07 02:07 34.16213 -119.03328 30892 ft 455 kts 319°
2026-05-07 02:07 34.20728 -119.08705 31522 ft 453 kts 319°
2026-05-07 02:07 34.22981 -119.11370 31863 ft 451 kts 319°
2026-05-07 02:08 34.25194 -119.13991 32086 ft 451 kts 319°
2026-05-07 02:08 34.27448 -119.16667 32062 ft 454 kts 319°
2026-05-07 02:08 34.31936 -119.22020 32065 ft 450 kts 319°
2026-05-07 02:09 34.36385 -119.27348 32060 ft 448 kts 319°
2026-05-07 02:09 34.40058 -119.31752 32074 ft 447 kts 319°
2026-05-07 02:10 34.45214 -119.37945 32080 ft 447 kts 318°
2026-05-07 02:10 34.48921 -119.42404 32085 ft 448 kts 319°
2026-05-07 02:11 34.53331 -119.47710 32091 ft 449 kts 319°
2026-05-07 02:11 34.57779 -119.53077 32077 ft 451 kts 319°
2026-05-07 02:12 34.62235 -119.58459 32078 ft 452 kts 318°
2026-05-07 02:12 34.66680 -119.63839 32074 ft 453 kts 319°
2026-05-07 02:13 34.71122 -119.69212 32080 ft 453 kts 319°
2026-05-07 02:13 34.75588 -119.74641 32075 ft 454 kts 318°
2026-05-07 02:14 34.80052 -119.80076 32077 ft 454 kts 318°
2026-05-07 02:14 34.84502 -119.85513 32078 ft 452 kts 318°
2026-05-07 02:15 34.88962 -119.90927 32073 ft 451 kts 318°
2026-05-07 02:15 34.93370 -119.96332 32089 ft 451 kts 318°
2026-05-07 02:16 34.97803 -120.01758 32096 ft 450 kts 318°
2026-05-07 02:16 35.02231 -120.07166 32108 ft 450 kts 318°
2026-05-07 02:17 35.06625 -120.12568 32093 ft 451 kts 317°
2026-05-07 02:17 35.11057 -120.18028 32101 ft 451 kts 317°
2026-05-07 02:18 35.15453 -120.23442 32093 ft 451 kts 317°
2026-05-07 02:18 35.20136 -120.28506 32106 ft 448 kts 326°
2026-05-07 02:19 35.25185 -120.33017 32097 ft 448 kts 326°
2026-05-07 02:19 35.30186 -120.37495 32101 ft 448 kts 326°
2026-05-07 02:20 35.35198 -120.42070 32091 ft 448 kts 325°
2026-05-07 02:20 35.40188 -120.46660 32100 ft 448 kts 325°
2026-05-07 02:21 35.45153 -120.51235 32098 ft 448 kts 325°
2026-05-07 02:21 35.50154 -120.55847 32101 ft 448 kts 325°
2026-05-07 02:22 35.55126 -120.60394 32108 ft 448 kts 326°
2026-05-07 02:22 35.60195 -120.64862 32110 ft 448 kts 327°
2026-05-07 02:23 35.65273 -120.69319 32110 ft 448 kts 326°
2026-05-07 02:23 35.70315 -120.73771 32107 ft 448 kts 326°
2026-05-07 02:24 35.75383 -120.78265 32107 ft 447 kts 326°
2026-05-07 02:24 35.80405 -120.82729 32097 ft 447 kts 326°
2026-05-07 02:25 35.85468 -120.87237 32091 ft 447 kts 326°
2026-05-07 02:25 35.90482 -120.91709 32083 ft 447 kts 326°
2026-05-07 02:26 35.95529 -120.96218 32089 ft 447 kts 326°
2026-05-07 02:26 36.00568 -121.00726 32085 ft 447 kts 326°
2026-05-07 02:27 36.05583 -121.05209 32094 ft 446 kts 326°
2026-05-07 02:27 36.10622 -121.09735 32097 ft 447 kts 326°
2026-05-07 02:28 36.15628 -121.14239 32106 ft 447 kts 326°
2026-05-07 02:28 36.20666 -121.18776 32106 ft 447 kts 326°
2026-05-07 02:29 36.25695 -121.23311 32117 ft 447 kts 326°
2026-05-07 02:29 36.30734 -121.27863 32114 ft 448 kts 326°
2026-05-07 02:30 36.35744 -121.32396 32131 ft 448 kts 326°
2026-05-07 02:30 36.40776 -121.36956 32131 ft 448 kts 325°
2026-05-07 02:31 36.45820 -121.41536 32134 ft 448 kts 325°
2026-05-07 02:31 36.50826 -121.46088 32139 ft 448 kts 325°
2026-05-07 02:32 36.55858 -121.50671 32148 ft 448 kts 325°
2026-05-07 02:32 36.60888 -121.55260 32141 ft 448 kts 325°
2026-05-07 02:33 36.66110 -121.59331 32143 ft 445 kts 338°
2026-05-07 02:33 36.72061 -121.61444 32146 ft 443 kts 352°
2026-05-07 02:34 36.78146 -121.62476 32144 ft 443 kts 353°
2026-05-07 02:34 36.84268 -121.63486 32138 ft 444 kts 353°
2026-05-07 02:35 36.90339 -121.64527 32139 ft 444 kts 352°
2026-05-07 02:35 36.96468 -121.65605 32135 ft 444 kts 352°
2026-05-07 02:36 37.02605 -121.66693 32134 ft 444 kts 352°
2026-05-07 02:36 37.08646 -121.67768 32131 ft 444 kts 352°
2026-05-07 02:37 37.14799 -121.68863 32131 ft 444 kts 352°
2026-05-07 02:37 37.20899 -121.69950 32121 ft 444 kts 352°
2026-05-07 02:38 37.27037 -121.71045 32129 ft 444 kts 352°
2026-05-07 02:38 37.33149 -121.72138 32122 ft 444 kts 352°
2026-05-07 02:39 37.39288 -121.73237 32125 ft 444 kts 352°
2026-05-07 02:39 37.45383 -121.74329 32131 ft 443 kts 352°
2026-05-07 02:40 37.51445 -121.75418 32113 ft 443 kts 352°
2026-05-07 02:40 37.57548 -121.76516 32106 ft 443 kts 352°
2026-05-07 02:41 37.63631 -121.77612 32113 ft 443 kts 352°
2026-05-07 02:41 37.69758 -121.78718 32107 ft 442 kts 352°
2026-05-07 02:42 37.75820 -121.79814 32109 ft 442 kts 352°
2026-05-07 02:42 37.81924 -121.80920 32102 ft 442 kts 351°
2026-05-07 02:43 37.88017 -121.82025 32102 ft 442 kts 351°
2026-05-07 02:43 37.94071 -121.83126 32091 ft 442 kts 351°
2026-05-07 02:44 38.00170 -121.84236 32091 ft 442 kts 351°
2026-05-07 02:44 38.06274 -121.85348 32090 ft 442 kts 351°
2026-05-07 02:45 38.12365 -121.86461 32088 ft 442 kts 351°
2026-05-07 02:45 38.18419 -121.87569 32071 ft 442 kts 351°
2026-05-07 02:46 38.24496 -121.88682 32070 ft 442 kts 351°
2026-05-07 02:46 38.30595 -121.89802 32071 ft 442 kts 351°
2026-05-07 02:47 38.36703 -121.90925 32082 ft 442 kts 351°
2026-05-07 02:47 38.42802 -121.92048 32083 ft 442 kts 351°
2026-05-07 02:48 38.48882 -121.93170 32082 ft 442 kts 351°
2026-05-07 02:48 38.54933 -121.94288 32081 ft 442 kts 351°
2026-05-07 02:49 38.61011 -121.95413 32083 ft 442 kts 351°
2026-05-07 02:49 38.67050 -121.96533 32079 ft 441 kts 351°
2026-05-07 02:50 38.73130 -121.97663 32080 ft 441 kts 351°
2026-05-07 02:50 38.79129 -121.98779 32083 ft 441 kts 351°
2026-05-07 02:51 38.85161 -121.99904 32076 ft 441 kts 351°
2026-05-07 02:51 38.91210 -122.01033 32077 ft 441 kts 351°
2026-05-07 02:52 38.96250 -122.01976 32083 ft 440 kts 350°
2026-05-07 02:52 39.03323 -122.03301 32072 ft 440 kts 350°
2026-05-07 02:53 39.08370 -122.04248 32070 ft 440 kts 350°
2026-05-07 02:53 39.14434 -122.05388 32072 ft 440 kts 350°
2026-05-07 02:54 39.20510 -122.06532 32071 ft 440 kts 350°
2026-05-07 02:54 39.26529 -122.07667 32051 ft 440 kts 350°
2026-05-07 02:55 39.32606 -122.08815 32066 ft 439 kts 350°
2026-05-07 02:55 39.38669 -122.09963 32058 ft 440 kts 350°
2026-05-07 02:56 39.44696 -122.11106 32060 ft 440 kts 350°
2026-05-07 02:56 39.50764 -122.12258 32064 ft 440 kts 350°
2026-05-07 02:57 39.56828 -122.13412 32063 ft 440 kts 350°
2026-05-07 02:57 39.62857 -122.14562 32065 ft 440 kts 350°
2026-05-07 02:58 39.68935 -122.15722 32069 ft 440 kts 350°
2026-05-07 02:58 39.74996 -122.16882 32068 ft 440 kts 350°
2026-05-07 02:59 39.81071 -122.18046 32074 ft 440 kts 350°
2026-05-07 02:59 39.87107 -122.19205 32075 ft 440 kts 350°
2026-05-07 03:00 39.93169 -122.20372 32072 ft 440 kts 350°
2026-05-07 03:00 39.99171 -122.21527 32072 ft 440 kts 350°
2026-05-07 03:01 40.05216 -122.22694 32071 ft 439 kts 350°
2026-05-07 03:01 40.11271 -122.23806 32071 ft 440 kts 352°
2026-05-07 03:02 40.17382 -122.24465 32073 ft 440 kts 354°
2026-05-07 03:02 40.23462 -122.24985 32072 ft 440 kts 355°
2026-05-07 03:03 40.29597 -122.25536 32068 ft 440 kts 354°
2026-05-07 03:03 40.35688 -122.26118 32059 ft 440 kts 354°
2026-05-07 03:04 40.41803 -122.26717 32052 ft 440 kts 354°
2026-05-07 03:04 40.47926 -122.27320 32058 ft 440 kts 355°
2026-05-07 03:05 40.54045 -122.27924 32053 ft 440 kts 355°
2026-05-07 03:05 40.60168 -122.28529 32049 ft 440 kts 355°
2026-05-07 03:06 40.66261 -122.29131 32057 ft 440 kts 355°
2026-05-07 03:06 40.72390 -122.29738 32069 ft 440 kts 355°
2026-05-07 03:07 40.78469 -122.30341 32078 ft 441 kts 355°
2026-05-07 03:07 40.84588 -122.30950 32088 ft 440 kts 355°
2026-05-07 03:08 40.90719 -122.31561 32099 ft 440 kts 355°
2026-05-07 03:08 40.96804 -122.32168 32102 ft 441 kts 356°
2026-05-07 03:09 41.02942 -122.32781 32102 ft 441 kts 356°
2026-05-07 03:09 41.09036 -122.33392 32124 ft 441 kts 356°
2026-05-07 03:10 41.15157 -122.34005 32136 ft 440 kts 356°
2026-05-07 03:10 41.21272 -122.34621 32136 ft 439 kts 355°
2026-05-07 03:11 41.27357 -122.35235 32132 ft 440 kts 356°
2026-05-07 03:11 41.33463 -122.35851 32139 ft 440 kts 356°
2026-05-07 03:12 41.39544 -122.36465 32138 ft 440 kts 355°
2026-05-07 03:12 41.45658 -122.37086 32137 ft 440 kts 355°
2026-05-07 03:13 41.51781 -122.37708 32123 ft 440 kts 355°
2026-05-07 03:13 41.57857 -122.38324 32116 ft 439 kts 355°
2026-05-07 03:14 41.63957 -122.38946 32119 ft 439 kts 355°
2026-05-07 03:15 41.73073 -122.39877 32106 ft 438 kts 355°
2026-05-07 03:15 41.79160 -122.40499 32131 ft 437 kts 354°
2026-05-07 03:16 41.85250 -122.41124 32115 ft 438 kts 354°
2026-05-07 03:16 41.91303 -122.41747 32111 ft 438 kts 354°
2026-05-07 03:17 41.97343 -122.42368 32119 ft 437 kts 355°
2026-05-07 03:17 42.03409 -122.42994 32106 ft 437 kts 354°
2026-05-07 03:18 42.09482 -122.43622 32116 ft 437 kts 354°
2026-05-07 03:18 42.15515 -122.44246 32109 ft 436 kts 354°
2026-05-07 03:19 42.21584 -122.44876 32106 ft 437 kts 354°
2026-05-07 03:19 42.27652 -122.45507 32116 ft 436 kts 354°
2026-05-07 03:20 42.33678 -122.46132 32090 ft 436 kts 354°
2026-05-07 03:20 42.39735 -122.46765 32116 ft 436 kts 354°
2026-05-07 03:21 42.45799 -122.47400 32101 ft 437 kts 354°
2026-05-07 03:21 42.51897 -122.48040 32115 ft 438 kts 354°
2026-05-07 03:22 42.57953 -122.48675 32104 ft 438 kts 354°
2026-05-07 03:22 42.64049 -122.49316 32112 ft 438 kts 354°
2026-05-07 03:23 42.70099 -122.49953 32109 ft 438 kts 354°
2026-05-07 03:23 42.76199 -122.50597 32103 ft 438 kts 354°
2026-05-07 03:24 42.82285 -122.51240 32130 ft 437 kts 354°
2026-05-07 03:24 42.88330 -122.51882 32115 ft 437 kts 354°
2026-05-07 03:25 42.94396 -122.52526 32129 ft 437 kts 354°
2026-05-07 03:25 43.00473 -122.53172 32131 ft 437 kts 354°
2026-05-07 03:26 43.06550 -122.53821 32136 ft 437 kts 354°
2026-05-07 03:26 43.12601 -122.54467 32139 ft 437 kts 354°
2026-05-07 03:27 43.18634 -122.55115 32147 ft 437 kts 353°
2026-05-07 03:27 43.24716 -122.55765 32155 ft 437 kts 353°
2026-05-07 03:28 43.30756 -122.56414 32167 ft 437 kts 353°
2026-05-07 03:28 43.36839 -122.57069 32149 ft 437 kts 353°
2026-05-07 03:29 43.42909 -122.57725 32157 ft 437 kts 353°
2026-05-07 03:29 43.48969 -122.58380 32142 ft 436 kts 353°
2026-05-07 03:30 43.54995 -122.59033 32176 ft 436 kts 353°
2026-05-07 03:30 43.61060 -122.59690 32163 ft 435 kts 353°
2026-05-07 03:31 43.67060 -122.60344 32155 ft 434 kts 353°
2026-05-07 03:31 43.73071 -122.60999 32164 ft 434 kts 353°
2026-05-07 03:32 43.79063 -122.61653 32168 ft 434 kts 353°
2026-05-07 03:32 43.85077 -122.62311 32172 ft 434 kts 353°
2026-05-07 03:33 43.91100 -122.62972 32161 ft 435 kts 353°
2026-05-07 03:33 43.97138 -122.63635 32181 ft 435 kts 353°
2026-05-07 03:34 44.03141 -122.64296 32181 ft 434 kts 353°
2026-05-07 03:34 44.09168 -122.64960 32185 ft 433 kts 353°
2026-05-07 03:35 44.15150 -122.65623 32170 ft 433 kts 353°
2026-05-07 03:35 44.21159 -122.66289 32172 ft 433 kts 353°
2026-05-07 03:36 44.26169 -122.66844 32180 ft 433 kts 353°
2026-05-07 03:36 44.32169 -122.67512 32197 ft 434 kts 353°
2026-05-07 03:37 44.38195 -122.68183 32181 ft 433 kts 353°
2026-05-07 03:37 44.44208 -122.68854 32184 ft 433 kts 353°
2026-05-07 03:38 44.50204 -122.69525 32181 ft 432 kts 353°
2026-05-07 03:38 44.56184 -122.70196 32168 ft 432 kts 353°
2026-05-07 03:39 44.62155 -122.70866 32182 ft 432 kts 353°
2026-05-07 03:39 44.68133 -122.71539 32204 ft 432 kts 352°
2026-05-07 03:40 44.74137 -122.72217 32181 ft 432 kts 352°
2026-05-07 03:40 44.80083 -122.72889 32186 ft 431 kts 352°
2026-05-07 03:41 44.86068 -122.73567 32179 ft 431 kts 352°
2026-05-07 03:41 44.92045 -122.74246 32185 ft 431 kts 352°
2026-05-07 03:42 44.98042 -122.74928 32188 ft 431 kts 352°
2026-05-07 03:42 45.03999 -122.75607 32180 ft 431 kts 352°
2026-05-07 03:43 45.09968 -122.76289 32190 ft 431 kts 352°
2026-05-07 03:43 45.15957 -122.76975 32181 ft 431 kts 352°
2026-05-07 03:44 45.21899 -122.77656 32183 ft 431 kts 352°
2026-05-07 03:44 45.27896 -122.78345 32182 ft 431 kts 352°
2026-05-07 03:45 45.33856 -122.79032 32183 ft 431 kts 352°
2026-05-07 03:45 45.39855 -122.79725 32186 ft 431 kts 352°
2026-05-07 03:46 45.45803 -122.80413 32215 ft 431 kts 352°
2026-05-07 03:46 45.51793 -122.81107 32214 ft 431 kts 352°
2026-05-07 03:47 45.57775 -122.81802 32183 ft 431 kts 352°
2026-05-07 03:47 45.63763 -122.82500 32181 ft 431 kts 352°
2026-05-07 03:48 45.69701 -122.83193 32185 ft 430 kts 352°
2026-05-07 03:48 45.75683 -122.83892 32201 ft 430 kts 352°
2026-05-07 03:49 45.81668 -122.84391 32201 ft 431 kts 354°
2026-05-07 03:49 45.87679 -122.84633 32200 ft 432 kts 355°
2026-05-07 03:50 45.93653 -122.84878 32201 ft 432 kts 354°
2026-05-07 03:50 45.99647 -122.85161 32237 ft 432 kts 354°
2026-05-07 03:51 46.05683 -122.85464 32240 ft 433 kts 354°
2026-05-07 03:51 46.11721 -122.85772 32231 ft 434 kts 354°
2026-05-07 03:52 46.17732 -122.86078 32241 ft 434 kts 354°
2026-05-07 03:52 46.23778 -122.86388 32101 ft 437 kts 354°
2026-05-07 03:52 46.26860 -122.86549 31330 ft 443 kts 354°
2026-05-07 03:53 46.29906 -122.86701 30751 ft 433 kts 354°
2026-05-07 03:53 46.32899 -122.86851 30188 ft 428 kts 354°
2026-05-07 03:53 46.35847 -122.87000 29547 ft 424 kts 354°
2026-05-07 03:53 46.38759 -122.87148 28963 ft 419 kts 354°
2026-05-07 03:54 46.41667 -122.87296 28394 ft 415 kts 353°
2026-05-07 03:54 46.44547 -122.87444 27830 ft 411 kts 353°
2026-05-07 03:54 46.47362 -122.87589 27289 ft 407 kts 353°
2026-05-07 03:54 46.50182 -122.87734 26751 ft 404 kts 353°
2026-05-07 03:55 46.52987 -122.87879 26212 ft 400 kts 353°
2026-05-07 03:55 46.55773 -122.88024 25682 ft 397 kts 353°
2026-05-07 03:55 46.58523 -122.88166 25151 ft 395 kts 353°
2026-05-07 03:55 46.61267 -122.88309 24635 ft 393 kts 353°
2026-05-07 03:56 46.63963 -122.88448 24094 ft 391 kts 353°
2026-05-07 03:56 46.66686 -122.88590 23503 ft 390 kts 352°
2026-05-07 03:56 46.69391 -122.88731 22924 ft 387 kts 352°
2026-05-07 03:56 46.72079 -122.88870 22376 ft 384 kts 352°
2026-05-07 03:57 46.74743 -122.89008 21848 ft 381 kts 352°
2026-05-07 03:57 46.77384 -122.89145 21326 ft 377 kts 352°
2026-05-07 03:57 46.79962 -122.89280 20840 ft 375 kts 352°
2026-05-07 03:57 46.82583 -122.89417 20299 ft 372 kts 352°
2026-05-07 03:58 46.85159 -122.89552 19801 ft 370 kts 352°
2026-05-07 03:58 46.87699 -122.89686 19299 ft 368 kts 352°
2026-05-07 03:58 46.90267 -122.89821 18782 ft 368 kts 352°
2026-05-07 03:58 46.92790 -122.89951 18559 ft 358 kts 352°
2026-05-07 03:59 46.95262 -122.89994 18311 ft 353 kts 359°
2026-05-07 03:59 46.97638 -122.89047 18070 ft 358 kts 18°
2026-05-07 03:59 46.99762 -122.87055 17640 ft 367 kts 34°
2026-05-07 03:59 47.01673 -122.84591 17221 ft 365 kts 36°
2026-05-07 04:00 47.03563 -122.82108 16784 ft 363 kts 35°
2026-05-07 04:00 47.05453 -122.79649 16347 ft 361 kts 35°
2026-05-07 04:00 47.07339 -122.77222 15909 ft 359 kts 35°
2026-05-07 04:00 47.09199 -122.74844 15501 ft 357 kts 35°
2026-05-07 04:01 47.11060 -122.72468 15110 ft 356 kts 35°
2026-05-07 04:01 47.12924 -122.70087 14701 ft 354 kts 36°
2026-05-07 04:01 47.14782 -122.67709 14280 ft 353 kts 36°
2026-05-07 04:01 47.16637 -122.65331 13841 ft 352 kts 36°
2026-05-07 04:02 47.18475 -122.62972 13484 ft 347 kts 36°
2026-05-07 04:02 47.20246 -122.60689 13326 ft 329 kts 35°
2026-05-07 04:02 47.21909 -122.58544 13166 ft 313 kts 35°
2026-05-07 04:02 47.23530 -122.56459 12991 ft 305 kts 35°
2026-05-07 04:03 47.25142 -122.54391 12821 ft 310 kts 35°
2026-05-07 04:03 47.26771 -122.52300 12632 ft 316 kts 36°
2026-05-07 04:03 47.28433 -122.50159 12423 ft 318 kts 36°
2026-05-07 04:03 47.30125 -122.47989 12205 ft 316 kts 32°
2026-05-07 04:04 47.31996 -122.46618 11985 ft 300 kts
2026-05-07 04:04 47.34036 -122.46463 11832 ft 288 kts 350°
2026-05-07 04:04 47.36016 -122.46756 11653 ft 285 kts 347°
2026-05-07 04:04 47.37978 -122.47144 11479 ft 284 kts 346°
2026-05-07 04:05 47.39935 -122.47570 11301 ft 283 kts 346°
2026-05-07 04:05 47.41881 -122.47995 11122 ft 282 kts 347°
2026-05-07 04:05 47.43826 -122.48408 10965 ft 281 kts 346°
2026-05-07 04:05 47.45736 -122.48817 10783 ft 281 kts 347°
2026-05-07 04:06 47.47671 -122.49215 10610 ft 280 kts 347°
2026-05-07 04:06 47.49610 -122.49564 10421 ft 281 kts 349°
2026-05-07 04:06 47.51539 -122.49839 10269 ft 274 kts 350°
2026-05-07 04:06 47.53377 -122.50107 10220 ft 255 kts 348°
2026-05-07 04:07 47.55081 -122.50432 10077 ft 237 kts 347°
2026-05-07 04:07 47.56654 -122.50777 9927 ft 219 kts 345°
2026-05-07 04:07 47.58141 -122.51125 9499 ft 216 kts 347°
2026-05-07 04:07 47.59597 -122.51420 9311 ft 209 kts 347°
2026-05-07 04:08 47.61046 -122.51710 9175 ft 207 kts 348°
2026-05-07 04:08 47.62475 -122.51963 9049 ft 212 kts 349°
2026-05-07 04:08 47.63967 -122.52162 8919 ft 217 kts 351°
2026-05-07 04:08 47.65480 -122.52317 8771 ft 217 kts 352°
2026-05-07 04:09 47.66975 -122.52470 8629 ft 215 kts 351°
2026-05-07 04:09 47.68463 -122.52616 8487 ft 213 kts 352°
2026-05-07 04:09 47.69934 -122.52757 8223 ft 211 kts 353°
2026-05-07 04:09 47.71371 -122.52851 7857 ft 212 kts 354°
2026-05-07 04:10 47.72820 -122.52931 7545 ft 208 kts 350°
2026-05-07 04:10 47.74250 -122.53161 7187 ft 208 kts 351°
2026-05-07 04:10 47.75696 -122.53349 6839 ft 208 kts 351°
2026-05-07 04:10 47.77137 -122.53511 6505 ft 207 kts 353°
2026-05-07 04:11 47.78577 -122.53553 6133 ft 208 kts 359°
2026-05-07 04:11 47.80026 -122.53381 5774 ft 208 kts
2026-05-07 04:11 47.81435 -122.53037 5477 ft 205 kts 10°
2026-05-07 04:11 47.82781 -122.52620 5378 ft 190 kts 10°
2026-05-07 04:12 47.84055 -122.52239 5095 ft 184 kts 12°
2026-05-07 04:12 47.85302 -122.51805 5033 ft 188 kts 10°
2026-05-07 04:12 47.86611 -122.51527 5006 ft 189 kts
2026-05-07 04:12 47.87900 -122.51345 4995 ft 186 kts
2026-05-07 04:13 47.89181 -122.51341 5005 ft 184 kts 357°
2026-05-07 04:13 47.90476 -122.51404 5009 ft 186 kts 357°
2026-05-07 04:13 47.91779 -122.51473 5013 ft 188 kts 357°
2026-05-07 04:13 47.93093 -122.51543 5003 ft 189 kts 357°
2026-05-07 04:14 47.94412 -122.51615 5001 ft 189 kts 357°
2026-05-07 04:14 47.95726 -122.51687 4998 ft 189 kts 357°
2026-05-07 04:14 47.97020 -122.51758 4998 ft 188 kts 357°
2026-05-07 04:14 47.98326 -122.51811 4999 ft 185 kts 357°
2026-05-07 04:15 47.99596 -122.51849 4990 ft 182 kts 357°
2026-05-07 04:15 48.00866 -122.51885 5000 ft 181 kts 357°
2026-05-07 04:15 48.02122 -122.51917 4810 ft 179 kts 357°
2026-05-07 04:15 48.03371 -122.51952 4429 ft 180 kts 357°
2026-05-07 04:16 48.04614 -122.51995 4038 ft 182 kts 357°
2026-05-07 04:16 48.05874 -122.52047 3680 ft 180 kts 357°
2026-05-07 04:16 48.07138 -122.52108 3552 ft 182 kts 357°
2026-05-07 04:16 48.08409 -122.52174 3512 ft 183 kts 357°
2026-05-07 04:17 48.09671 -122.52241 3504 ft 179 kts 357°
2026-05-07 04:17 48.10918 -122.52308 3503 ft 181 kts 357°
2026-05-07 04:17 48.12176 -122.52374 3509 ft 181 kts 357°
2026-05-07 04:17 48.13424 -122.52348 3492 ft 183 kts 14°
2026-05-07 04:18 48.14381 -122.51214 3504 ft 180 kts 67°
2026-05-07 04:18 48.14502 -122.49349 3545 ft 185 kts 92°
2026-05-07 04:18 48.14476 -122.48040 3514 ft 190 kts 90°
2026-05-07 04:18 48.14474 -122.46062 3500 ft 188 kts 89°
2026-05-07 04:19 48.14505 -122.44141 3502 ft 180 kts 88°
2026-05-07 04:19 48.14560 -122.42293 3507 ft 177 kts 86°
2026-05-07 04:19 48.14631 -122.40464 3493 ft 175 kts 86°
2026-05-07 04:19 48.14712 -122.38642 3505 ft 176 kts 86°
2026-05-07 04:20 48.14797 -122.36811 3516 ft 177 kts 86°
2026-05-07 04:20 48.14885 -122.34983 3519 ft 177 kts 86°
2026-05-07 04:20 48.14977 -122.33131 3508 ft 175 kts 86°
2026-05-07 04:21 48.14578 -122.29701 3477 ft 173 kts 140°
2026-05-07 04:21 48.13485 -122.29080 3506 ft 171 kts 180°
2026-05-07 04:21 48.12284 -122.29062 3522 ft 172 kts 180°
2026-05-07 04:21 48.11109 -122.29022 3511 ft 170 kts 180°
2026-05-07 04:22 48.09923 -122.28992 3471 ft 171 kts 180°
2026-05-07 04:22 48.08737 -122.28965 3360 ft 170 kts 180°
2026-05-07 04:22 48.07552 -122.28938 3276 ft 167 kts 180°
2026-05-07 04:22 48.06430 -122.28912 3187 ft 158 kts 180°
2026-05-07 04:23 48.05325 -122.28887 3077 ft 158 kts 180°
2026-05-07 04:23 48.04217 -122.28861 2934 ft 157 kts 179°
2026-05-07 04:23 48.03146 -122.28836 2743 ft 155 kts 179°
2026-05-07 04:23 48.02081 -122.28811 2549 ft 151 kts 179°
2026-05-07 04:24 48.01032 -122.28787 2353 ft 151 kts 179°
2026-05-07 04:24 47.99970 -122.28754 2175 ft 153 kts 178°
2026-05-07 04:24 47.98918 -122.28700 1955 ft 152 kts 178°
2026-05-07 04:24 47.97861 -122.28663 1738 ft 152 kts 179°
2026-05-07 04:25 47.96804 -122.28671 1517 ft 151 kts 180°
2026-05-07 04:25 47.95744 -122.28652 1317 ft 153 kts 179°
2026-05-07 04:25 47.94670 -122.28635 1056 ft 154 kts 179°
2026-05-07 04:25 47.93607 -122.28611 842 ft 152 kts 180°
2026-05-07 04:26 47.92555 -122.28598 665 ft 155 kts 179°
2026-05-07 04:26 47.91495 -122.28567 571 ft 138 kts 179°
2026-05-07 04:26 47.90744 -122.28557 568 ft 76 kts 179°
2026-05-07 04:26 47.90367 -122.28547 568 ft 44 kts 179°
2026-05-07 04:27 47.90221 -122.28519 570 ft 9 kts 133°
2026-05-07 04:27 47.90210 -122.28427 567 ft 9 kts 88°
2026-05-07 04:27 47.90210 -122.28355 568 ft 3 kts 85°
2026-05-07 04:27 47.90247 -122.28328 572 ft 12 kts
2026-05-07 04:28 47.90342 -122.28328 568 ft 18 kts 358°
2026-05-07 04:28 47.90482 -122.28332 570 ft 21 kts 359°
2026-05-07 04:28 47.90619 -122.28334 568 ft 17 kts 360°
2026-05-07 04:28 47.90731 -122.28337 571 ft 12 kts 359°
2026-05-07 04:29 47.90816 -122.28339 568 ft 12 kts 358°
2026-05-07 04:29 47.90884 -122.28338 566 ft 6 kts 20°
2026-05-07 04:29 47.90869 -122.28255 568 ft 8 kts 133°
2026-05-07 04:29 47.90834 -122.28171 569 ft 11 kts 90°
2026-05-07 04:30 47.90855 -122.28088 568 ft 6 kts 106°
2026-05-07 04:30 47.90825 -122.28030 569 ft 8 kts 133°
2026-05-07 04:30 47.90798 -122.27987 567 ft 4 kts 131°
2026-05-07 04:30 47.90799 -122.27936 566 ft 2 kts 68°
2026-05-07 04:31 47.90807 -122.27911 568 ft 4 kts 64°
2026-05-07 04:31 47.90812 -122.27897 569 ft 0 kts 63°